Time,TemperatureF,DewpointF,PressureIn,WindDirection,WindDirectionDegrees,WindSpeedMPH,WindSpeedGustMPH,Humidity,HourlyPrecipIn,Conditions,Clouds,dailyrainin,SoftwareType,DateUTC
2013-10-07 00:00:00,45.1,41.2,30.17,North,5,0.0,0.0,86,0.00,,,0.00,Wunderground v.1.13,2013-10-07 04:00:00,
2013-10-07 00:30:00,45.4,41.5,30.17,West,277,1.0,3.0,86,0.00,,,0.00,Wunderground v.1.13,2013-10-07 04:30:00,
2013-10-07 01:00:00,46.5,41.3,30.17,NNW,331,1.0,2.0,82,0.00,,,0.00,Wunderground v.1.13,2013-10-07 05:00:00,
2013-10-07 01:30:00,46.6,41.7,30.16,North,355,1.0,4.0,83,0.00,,,0.00,Wunderground v.1.13,2013-10-07 05:30:00,
2013-10-07 02:00:00,46.4,42.1,30.15,NW,304,2.0,2.0,85,0.00,,,0.00,Wunderground v.1.13,2013-10-07 06:00:00,
2013-10-07 02:30:00,45.9,42.5,30.14,NW,311,1.0,3.0,88,0.00,,,0.00,Wunderground v.1.13,2013-10-07 06:30:00,
2013-10-07 03:00:00,45.8,40.6,30.14,NW,322,1.0,1.0,82,0.00,,,0.00,Wunderground v.1.13,2013-10-07 07:00:00,
2013-10-07 03:30:00,46.2,40.0,30.14,NW,325,3.0,3.0,79,0.00,,,0.00,Wunderground v.1.13,2013-10-07 07:30:00,
2013-10-07 04:00:00,45.3,40.1,30.12,North,355,5.0,9.0,82,0.00,,,0.00,Wunderground v.1.13,2013-10-07 08:00:00,
2013-10-07 04:30:00,44.2,41.2,30.12,WNW,296,3.0,4.0,89,0.00,,,0.00,Wunderground v.1.13,2013-10-07 08:30:00,
2013-10-07 05:00:00,43.3,41.4,30.11,NW,309,4.0,4.0,93,0.00,,,0.01,Wunderground v.1.13,2013-10-07 09:00:00,
2013-10-07 06:00:00,43.3,42.0,30.11,NW,315,1.0,1.0,95,0.00,,,0.01,Wunderground v.1.13,2013-10-07 10:00:00,
2013-10-07 06:30:00,43.5,42.4,30.10,NNW,345,2.0,7.0,96,0.00,,,0.01,Wunderground v.1.13,2013-10-07 10:30:00,
2013-10-07 07:00:00,44.1,42.8,30.09,NW,311,3.0,3.0,95,0.00,,,0.01,Wunderground v.1.13,2013-10-07 11:00:00,
2013-10-07 07:30:00,44.6,42.7,30.09,NW,324,2.0,4.0,93,0.00,,,0.01,Wunderground v.1.13,2013-10-07 11:30:00,
2013-10-07 08:00:00,45.2,42.7,30.10,NNW,342,3.0,3.0,91,0.00,,,0.01,Wunderground v.1.13,2013-10-07 12:00:00,
2013-10-07 08:30:00,45.6,43.1,30.09,NNW,333,2.0,2.0,91,0.00,,,0.01,Wunderground v.1.13,2013-10-07 12:30:00,
2013-10-07 09:00:00,46.4,43.6,30.07,NNW,328,3.0,5.0,90,0.00,,,0.01,Wunderground v.1.13,2013-10-07 13:00:00,
2013-10-07 09:30:00,47.2,44.4,30.07,NW,313,1.0,5.0,90,0.00,,,0.01,Wunderground v.1.13,2013-10-07 13:30:00,
2013-10-07 10:00:00,48.2,45.7,30.06,North,5,3.0,9.0,91,0.00,,,0.01,Wunderground v.1.13,2013-10-07 14:00:00,
2013-10-07 10:30:00,49.6,46.8,30.05,WSW,254,5.0,5.0,90,0.00,,,0.01,Wunderground v.1.13,2013-10-07 14:30:00,
2013-10-07 11:00:00,50.4,47.6,30.03,NNW,343,5.0,11.0,90,0.00,,,0.01,Wunderground v.1.13,2013-10-07 15:00:00,
2013-10-07 11:30:00,50.5,48.0,30.02,NNW,343,4.0,4.0,91,0.00,,,0.01,Wunderground v.1.13,2013-10-07 15:30:00,
2013-10-07 12:00:00,51.0,48.8,30.01,North,360,4.0,4.0,92,0.00,,,0.01,Wunderground v.1.13,2013-10-07 16:00:00,
2013-10-07 12:30:00,51.8,49.5,29.99,NW,315,2.0,2.0,92,0.00,,,0.01,Wunderground v.1.13,2013-10-07 16:30:00,
2013-10-07 13:00:00,52.4,50.1,29.98,NW,325,5.0,5.0,92,0.00,,,0.01,Wunderground v.1.13,2013-10-07 17:00:00,
2013-10-07 13:30:00,53.3,51.0,29.95,NNW,338,4.0,4.0,92,0.00,,,0.01,Wunderground v.1.13,2013-10-07 17:30:00,
2013-10-07 14:00:00,54.3,52.0,29.93,NNW,335,5.0,5.0,92,0.00,,,0.01,Wunderground v.1.13,2013-10-07 18:00:00,
2013-10-07 14:30:00,55.1,52.8,29.91,West,269,5.0,10.0,92,0.00,,,0.01,Wunderground v.1.13,2013-10-07 18:30:00,
2013-10-07 15:00:00,55.5,53.5,29.90,NNW,345,5.0,7.0,93,0.00,,,0.01,Wunderground v.1.13,2013-10-07 19:00:00,
2013-10-07 15:30:00,56.0,54.3,29.88,North,360,6.0,11.0,94,0.00,,,0.01,Wunderground v.1.13,2013-10-07 19:30:00,
2013-10-07 16:00:00,56.0,54.6,29.87,NNW,344,3.0,3.0,95,0.00,,,0.01,Wunderground v.1.13,2013-10-07 20:00:00,
2013-10-07 16:30:00,55.9,55.1,29.85,NW,308,4.0,4.0,97,0.00,,,0.01,Wunderground v.1.13,2013-10-07 20:30:00,
2013-10-07 17:00:00,56.3,55.5,29.83,NW,315,3.0,7.0,97,0.00,,,0.01,Wunderground v.1.13,2013-10-07 21:00:00,
2013-10-07 17:30:00,56.8,56.2,29.81,WNW,290,5.0,5.0,98,0.05,,,0.04,Wunderground v.1.13,2013-10-07 21:30:00,
2013-10-07 18:00:00,57.4,56.8,29.80,WNW,292,5.0,5.0,98,0.00,,,0.04,Wunderground v.1.13,2013-10-07 22:00:00,
2013-10-07 18:30:00,58.1,57.5,29.77,NW,321,5.0,5.0,98,0.00,,,0.05,Wunderground v.1.13,2013-10-07 22:30:00,
2013-10-07 19:00:00,58.9,58.3,29.75,NW,321,4.0,4.0,98,0.00,,,0.06,Wunderground v.1.13,2013-10-07 23:00:00,
2013-10-07 19:30:00,59.5,58.9,29.72,NW,323,6.0,6.0,98,0.00,,,0.07,Wunderground v.1.13,2013-10-07 23:30:00,
2013-10-07 20:00:00,60.2,59.6,29.69,NNW,344,5.0,13.0,98,0.00,,,0.07,Wunderground v.1.13,2013-10-08 00:00:00,
2013-10-07 20:30:00,61.5,60.9,29.68,NW,314,7.0,10.0,98,0.00,,,0.07,Wunderground v.1.13,2013-10-08 00:30:00,
2013-10-07 21:00:00,62.9,61.7,29.67,North,350,7.0,16.0,96,0.00,,,0.07,Wunderground v.1.13,2013-10-08 01:00:00,
2013-10-07 21:30:00,63.7,62.2,29.65,WNW,300,7.0,7.0,95,0.00,,,0.07,Wunderground v.1.13,2013-10-08 01:30:00,
2013-10-07 22:00:00,63.7,62.5,29.64,NNW,342,6.0,6.0,96,0.10,,,0.10,Wunderground v.1.13,2013-10-08 02:00:00,
2013-10-07 22:30:00,63.5,62.6,29.64,NNW,339,6.0,8.0,97,0.08,,,0.15,Wunderground v.1.13,2013-10-08 02:30:00,
2013-10-07 23:00:00,63.7,62.8,29.63,WNW,292,7.0,7.0,97,0.14,,,0.26,Wunderground v.1.13,2013-10-08 03:00:00,
2013-10-07 23:30:00,61.8,58.8,29.66,ENE,61,5.0,7.0,90,0.10,,,0.30,Wunderground v.1.13,2013-10-08 03:30:00,